User: anonymous   Login
Location: Drayton Valley
(53.2170°N, 114.9830°W)
Time: 07:48:59
(UTC-07:00)
Language:

MOZ.5/SAFIR/RUBIN 5/SL-8 - Orbit

View from above orbital plane
View from above orbital plane
View from above satellite
View from above satellite

Ground track
Ground track

The orbit data is extracted from the following two-line orbital elements,

1 28898U 05043G   17349.91522599 +.00000087 +00000-0 +27332-4 0  9999
2 28898 097.9507 132.0381 0019242 340.9027 019.1451 14.60232620269728
Epoch (UTC): 15 December 2017 21:57:55
Eccentricity: 0.0019242
inclination: 97.9507°
perigee height: 679 km
apogee height: 706 km
right ascension of ascending node: 132.0381°
argument of perigee: 340.9027°
revolutions per day: 14.60232620
mean anomaly at epoch: 19.1451°
orbit number at epoch: 26972

The dashed part of the orbit path shows where the satellite is in the earth's shadow,  

DLR